Middlesboro, KY

12:51 AM EST on December 09, 2016 (GMT -0500)
Middlesboro

Weather History for K1A6 - April, 2014

Change the Weather History Date:

Sunday, April 27, 2014

  Actual Average (KLOZ) Record (KLOZ)
Temperature  
Mean Temperature 63 °F -  
Max Temperature 83 °F 71 °F 90 °F (1986)
Min Temperature 44 °F 45 °F 32 °F (1972)
Degree Days  
Heating Degree Days 2    
Growing Degree Days 13 (Base 50)    
Moisture  
Dew Point 51 °F    
Average Humidity 66    
Maximum Humidity 97    
Minimum Humidity 30    
Precipitation  
Precipitation 0.00 in - - ()
Sea Level Pressure  
Sea Level Pressure 29.96 in    
Wind  
Wind Speed 2 mph (SSW)    
Max Wind Speed 23 mph    
Max Gust Speed 32 mph    
Visibility 10 miles    
Events Rain    
Averages and records for this station are not official NWS values.
T = Trace of Precipitation, MM = Missing Value Source: NWS Daily Summary

Daily Weather History Graph

Daily Weather History Graph

Search for Another Location

Airport or City:

Trip Planner

Search our weather history database for the weather conditions in past years. The results will help you decide how hot, cold, wet, or windy it might be!

Date:

Astronomy

Apr. 27, 2014 Rise Set
Actual Time 5:45 AM CDT 7:19 PM CDT
Civil Twilight 5:18 AM CDT 7:47 PM CDT
Nautical Twilight 4:45 AM CDT 8:20 PM CDT
Astronomical Twilight 4:10 AM CDT 8:55 PM CDT
Moon 4:42 AM CDT (4/27) 5:54 PM CDT (4/27)
Length of Visible Light 14h 28m
Length of Day
13h 33m
Waning Crescent, 3% of the Moon is Illuminated
Apr 27
Waning Crescent
Apr 29
New
May 6
First Quarter
May 14
Full
May 21
Last Quarter

Hourly Weather History & Observations

Time (CDT) Temp. Heat Index Dew Point Humidity Pressure Visibility Wind Dir Wind Speed Gust Speed Precip Events Conditions
12:15 AM 50.7 °F - 46.9 °F 87% 29.99 in 10.0 mi Calm Calm - N/A   Clear
12:35 AM 49.8 °F - 46.4 °F 88% 29.99 in 10.0 mi Calm Calm - N/A   Clear
1:15 AM 48.9 °F - 46.4 °F 91% 30.00 in 10.0 mi Calm Calm - N/A   Clear
1:35 AM 48.6 °F - 46.4 °F 92% 30.00 in 10.0 mi Calm Calm - N/A   Clear
1:55 AM 48.2 °F - 46.2 °F 93% 30.00 in 10.0 mi Calm Calm - N/A   Clear
2:15 AM 47.8 °F - 45.7 °F 92% 29.99 in 10.0 mi Calm Calm - N/A   Clear
2:35 AM 47.3 °F - 45.7 °F 94% 29.99 in 10.0 mi Calm Calm - N/A   Clear
2:55 AM 46.8 °F - 45.5 °F 95% 29.99 in 10.0 mi Calm Calm - N/A   Clear
3:15 AM 46.6 °F - 45.1 °F 95% 30.00 in 10.0 mi Calm Calm - N/A   Clear
3:35 AM 46.2 °F - 45.0 °F 95% 30.00 in 10.0 mi Calm Calm - N/A   Clear
3:55 AM 46.0 °F - 44.8 °F 95% 29.99 in 10.0 mi Calm Calm - N/A   Clear
4:15 AM 45.5 °F - 44.6 °F 97% 30.00 in 10.0 mi Calm Calm - N/A   Clear
4:35 AM 45.3 °F - 44.1 °F 95% 30.00 in 10.0 mi Calm Calm - N/A   Clear
4:55 AM 44.8 °F - 44.1 °F 97% 30.01 in 10.0 mi Calm Calm - N/A   Clear
5:15 AM 44.8 °F - 44.1 °F 97% 30.01 in 10.0 mi Calm Calm - N/A   Clear
5:35 AM 44.6 °F - 43.7 °F 97% 30.02 in 10.0 mi Calm Calm - N/A   Clear
5:55 AM 44.8 °F - 44.1 °F 97% 30.03 in 10.0 mi Calm Calm - N/A   Clear
6:15 AM 45.3 °F - 44.1 °F 95% 30.03 in 10.0 mi Calm Calm - N/A   Clear
6:35 AM 45.7 °F - 44.6 °F 96% 30.03 in 10.0 mi Calm Calm - N/A   Clear
6:55 AM 46.4 °F - 44.8 °F 94% 30.04 in 10.0 mi Calm Calm - N/A   Clear
7:15 AM 48.4 °F - 45.9 °F 91% 30.05 in 10.0 mi Calm Calm - N/A   Clear
7:35 AM 49.1 °F - 46.4 °F 90% 30.05 in 10.0 mi Calm Calm - N/A   Clear
7:55 AM 52.2 °F - 47.3 °F 83% 30.04 in 10.0 mi Calm Calm - N/A   Clear
8:15 AM 54.3 °F - 48.0 °F 79% 30.04 in 10.0 mi Calm Calm - N/A   Clear
8:35 AM 56.3 °F - 46.2 °F 69% 30.03 in 10.0 mi Calm Calm - N/A   Clear
8:55 AM 59.2 °F - 47.1 °F 64% 30.03 in 10.0 mi Calm Calm - N/A   Clear
9:15 AM 61.7 °F - 48.9 °F 63% 30.02 in 10.0 mi Calm Calm - N/A   Clear
9:35 AM 64.6 °F - 48.9 °F 57% 30.01 in 10.0 mi Calm Calm - N/A   Clear
9:55 AM 67.8 °F - 51.1 °F 55% 30.01 in 10.0 mi Calm Calm - N/A   Clear
10:15 AM 71.1 °F - 50.5 °F 48% 30.00 in 10.0 mi Calm Calm - N/A   Clear
10:35 AM 75.7 °F - 50.2 °F 41% 29.98 in 10.0 mi South 9.2 mph - N/A   Clear
10:55 AM 77.2 °F - 51.6 °F 41% 29.97 in 10.0 mi South 6.9 mph - N/A   Clear
11:15 AM 77.7 °F - 52.0 °F 41% 29.97 in 10.0 mi South 6.9 mph - N/A   Clear
11:35 AM 78.4 °F - 52.0 °F 40% 29.97 in 10.0 mi SSE 6.9 mph - N/A   Clear
11:55 AM 79.5 °F - 51.8 °F 38% 29.96 in 10.0 mi South 8.1 mph - N/A   Clear
12:35 PM 79.7 °F - 51.8 °F 38% 29.95 in 10.0 mi South 5.8 mph - N/A   Clear
12:55 PM 80.6 °F - 50.7 °F 35% 29.94 in 10.0 mi SSE 5.8 mph - N/A   Clear
1:15 PM 81.0 °F - 51.1 °F 35% 29.93 in 10.0 mi South 4.6 mph - N/A   Clear
1:35 PM 80.8 °F - 50.5 °F 35% 29.92 in 10.0 mi SSW 5.8 mph - N/A   Clear
1:55 PM 82.0 °F - 50.4 °F 33% 29.91 in 10.0 mi SSW 4.6 mph - N/A   Clear
2:15 PM 82.8 °F - 49.6 °F 32% 29.91 in 10.0 mi Calm Calm - N/A   Clear
2:35 PM 82.9 °F - 49.3 °F 31% 29.90 in 10.0 mi SW 6.9 mph - N/A   Clear
2:55 PM 82.8 °F - 48.2 °F 30% 29.89 in 10.0 mi SSW 6.9 mph - N/A   Clear
3:15 PM 82.9 °F - 48.6 °F 30% 29.88 in 10.0 mi South 8.1 mph - N/A   Clear
3:35 PM 82.6 °F - 49.5 °F 31% 29.88 in 10.0 mi South 5.8 mph - N/A   Clear
3:55 PM 82.4 °F - 49.5 °F 32% 29.88 in 10.0 mi SSW 6.9 mph - N/A   Clear
4:15 PM 81.7 °F - 52.0 °F 36% 29.87 in 10.0 mi South 6.9 mph - N/A   Clear
4:35 PM 81.1 °F - 52.2 °F 36% 29.87 in 10.0 mi South 8.1 mph - N/A   Clear
4:55 PM 80.2 °F 80.0 °F 53.1 °F 39% 29.87 in 10.0 mi South 4.6 mph - N/A   Clear
5:15 PM 80.1 °F - 52.7 °F 39% 29.87 in 10.0 mi SSE 5.8 mph - N/A   Clear
5:35 PM 79.5 °F - 53.2 °F 40% 29.86 in 10.0 mi South 4.6 mph - N/A   Clear
5:55 PM 79.0 °F - 54.0 °F 42% 29.86 in 10.0 mi Calm Calm - N/A   Clear
6:15 PM 77.9 °F - 54.5 °F 44% 29.87 in 10.0 mi Calm Calm - N/A   Clear
6:35 PM 77.5 °F - 54.9 °F 45% 29.88 in 10.0 mi Calm Calm - N/A   Clear
6:55 PM 75.7 °F - 56.1 °F 50% 29.92 in 10.0 mi SSW 23.0 mph 26.5 mph N/A   Mostly Cloudy
7:15 PM 69.3 °F - 58.1 °F 68% 29.92 in 10.0 mi West 3.5 mph - N/A Rain Light Rain
7:35 PM 67.6 °F - 58.5 °F 72% 29.91 in 10.0 mi West 4.6 mph - N/A   Mostly Cloudy
7:55 PM 66.0 °F - 59.2 °F 79% 29.91 in 10.0 mi WSW 4.6 mph - N/A   Scattered Clouds
8:15 PM 65.5 °F - 59.0 °F 80% 29.92 in 10.0 mi WSW 3.5 mph - N/A   Scattered Clouds
8:35 PM 65.5 °F - 58.3 °F 77% 29.92 in 10.0 mi Calm Calm - N/A   Scattered Clouds
8:55 PM 65.3 °F - 58.3 °F 78% 29.92 in 10.0 mi Calm Calm - N/A   Mostly Cloudy
9:15 PM 64.9 °F - 57.9 °F 78% 29.93 in 10.0 mi Calm Calm - N/A   Scattered Clouds
9:35 PM 64.9 °F - 58.3 °F 79% 29.94 in 10.0 mi SW 9.2 mph - N/A   Mostly Cloudy
9:55 PM 70.5 °F - 56.5 °F 61% 29.94 in 10.0 mi SW 19.6 mph 32.2 mph N/A   Light Drizzle
10:15 PM 68.7 °F - 56.1 °F 64% 29.95 in 10.0 mi SW 10.4 mph 23.0 mph N/A Rain Light Rain
10:35 PM 66.6 °F - 57.9 °F 74% 29.96 in 10.0 mi WSW 6.9 mph - N/A Rain Light Rain
10:55 PM 67.6 °F - 57.6 °F 70% 29.95 in 10.0 mi SW 8.1 mph 18.4 mph N/A   Light Drizzle
11:15 PM 67.1 °F - 59.4 °F 76% 29.94 in 10.0 mi SW 5.8 mph - N/A Rain Rain
11:35 PM 67.1 °F - 58.8 °F 75% 29.93 in 10.0 mi SSW 8.1 mph - N/A   Overcast
11:55 PM 67.1 °F - 57.9 °F 72% 29.93 in 10.0 mi SSW 10.4 mph 16.1 mph N/A   Overcast